GPS BIIF-6

Last updated on Sat Aug 15 2026 00:02:48 GMT+0000 (Coordinated Universal Time)

1 39741U 14026A 26226.29741181 -.00000098 00000+0 00000+0 0 9994 2 39741 56.4659 329.2550 0038534 324.8569 34.9203 2.00556731 89701
UTC large
Height (km)
Speed (km/s)
/
Latitude / Longitude
Inclination (degrees)
Orbital Period (minutes)
Azimuth
Elevation
Range (km)
Doppler Factor

Next 0 passes for location: London (51.5072 / 0.1276)

No passes found over London.
GPS BIIF-6